Location: Capel Gartheli
(52.1833°N, 4.0667°W)
Time: 22:50:06
(UTC+00:00)

Cosmos 1633 - Pass Details

Date: 18 February 2020
Orbit: 464 x 482 km, 82.5° (Epoch: 05 April)

Event Time Altitude Azimuth Distance (km) Brightness Sun altitude
Rises 06:34:03 0° 338° (NNW) 2,561 5.9 -8.7°
Reaches altitude 10° 06:36:27 10° 324° (NW) 1,676 4.9 -8.4°
Maximum altitude 06:39:21 23° 271° (W) 1,085 3.7 -7.9°
Drops below altitude 10° 06:42:15 10° 218° (SW) 1,664 5.0 -7.5°
Sets 06:44:38 0° 204° (SSW) 2,538 6.1 -7.1°
